Wind_Speed
44 30 25 26 26 29 33 33 33 40 46 42 41 45 41 34 29 25 27 28 27 27 29 29 25 19 17 16 15 18 22 22 20 21 21 20 21 22 24 26 29 31 31
33 20 22 24 23 21 28 30 32 36 39 46 43 37 29 23 26 24 29 28 28 26 29 31 29 24 23 21 19 18 17 22 23 22 21 22 22 23 24 24 25 25 27
24 20 24 24 27 25 22 28 30 34 38 44 45 43 38 32 25 35 28 29 29 29 27 26 29 24 23 26 23 19 18 17 24 25 26 26 24 24 25 25 24 24 25
18 21 22 23 22 22 22 19 26 35 37 36 39 36 37 38 23 26 26 29 30 31 32 28 25 23 19 19 19 22 22 21 20 24 25 25 24 25 26 28 28 28 27
21 20 19 25 28 28 33 17 29 36 33 31 28 25 23 25 31 29 32 36 33 29 28 31 28 29 27 24 22 20 22 20 23 20 25 20 15 20 24 25 25 22 21
18 16 27 36 44 26 26 23 27 25 29 37 28 23 23 26 24 31 34 29 29 30 30 32 34 32 31 28 29 27 23 21 20 19 22 25 26 24 23 25 25 23 20
11 27 45 46 46 48 22 38 32 26 26 36 35 27 33 29 30 25 31 30 32 31 30 29 29 29 30 28 30 31 29 30 30 28 27 26 26 24 26 27 25 27 27
20 46 47 44 37 39 32 40 36 32 34 38 41 33 34 34 38 32 26 30 31 31 33 29 31 30 30 31 30 29 30 34 29 29 29 31 32 31 32 27 29 27 28
32 44 44 36 30 43 38 35 35 35 39 50 37 33 37 38 34 35 32 30 32 37 33 28 25 31 29 32 32 33 26 31 31 32 32 29 30 32 30 29 30 33 37
31 40 36 31 32 32 47 44 42 33 44 43 46 27 30 28 31 26 28 35 38 38 33 32 31 28 28 28 31 29 29 29 24 23 23 24 28 30 31 32 38 41 42
37 36 30 34 37 31 42 43 40 36 41 35 36 34 30 36 31 31 31 36 34 47 33 32 38 35 33 32 30 30 31 27 27 26 30 32 35 36 40 42 44 46 52
38 32 30 31 42 37 45 44 44 35 36 33 40 39 38 34 41 34 35 37 35 42 38 36 39 37 35 38 32 33 35 29 32 39 39 42 42 44 47 48 52 57 60
38 41 32 40 47 44 46 46 46 46 38 44 34 40 48 40 42 45 40 44 40 37 37 39 33 34 35 38 34 36 37 39 43 42 46 49 52 52 56 58 60 60 54
43 46 43 42 51 44 41 49 50 48 50 45 49 41 45 50 48 42 40 41 39 37 39 38 41 37 40 44 46 45 47 48 52 54 56 57 58 58 61 59 60 53 48
46 49 49 47 54 54 40 50 52 50 52 47 49 55 45 45 57 62 51 43 50 51 44 41 41 46 46 51 50 53 52 56 60 59 60 64 64 63 62 58 53 50 45
49 51 54 55 49 56 55 45 57 53 53 56 56 50 52 59 52 57 61 59 54 55 60 55 52 51 53 52 55 58 61 65 65 67 70 70 70 70 57 53 47 44 42
44 58 55 55 60 56 62 58 52 59 54 55 59 57 56 63 58 57 58 64 61 62 65 63 64 66 64 62 63 64 63 67 71 72 73 74 60 54 51 48 46 43 42
40 51 60 59 53 60 61 65 67 62 65 59 57 62 59 57 57 58 63 66 66 65 73 70 71 69 72 72 69 74 79 78 76 71 74 60 55 52 50 49 48 47 46
42 48 57 64 67 61 56 62 65 77 71 66 63 60 63 69 66 68 66 64 66 71 71 76 82 82 81 81 82 80 74 75 79 63 57 54 53 52 52 50 51 49 48
49 46 51 58 64 70 72 63 62 66 71 74 67 70 66 63 70 74 77 72 75 75 74 72 75 79 76 78 77 72 71 66 59 56 54 54 54 54 53 53 53 53 52
51 55 54 53 57 60 70 72 74 73 73 71 70 72 73 77 74 74 75 75 74 74 74 77 79 72 70 70 68 67 64 59 56 55 55 56 57 57 57 57 56 56 58
56 57 61 62 62 60 63 69 71 72 71 74 78 77 78 78 77 74 73 71 74 74 76 75 75 73 74 70 65 64 62 59 58 57 57 60 61 62 63 62 64 64 65
58 61 59 63 67 67 66 65 67 69 71 71 72 76 79 76 75 72 73 73 71 69 69 69 69 69 69 67 65 64 63 63 63 63 64 64 66 67 68 69 70 70 71
59 61 63 64 66 71 73 72 71 70 70 71 71 71 70 70 70 71 70 69 69 68 68 68 69 69 69 68 68 68 69 69 69 69 70 71 72 73 73 75 76 76 77
60 60 65 66 67 69 73 78 79 77 77 76 74 72 72 71 71 70 69 68 68 68 69 70 72 73 71 72 73 73 72 72 71 71 74 74 77 79 80 80 80 81 82
66 65 64 66 70 71 73 77 78 84 86 84 82 81 80 79 78 76 75 74 74 72 71 70 70 70 71 74 76 77 77 77 77 77 80 81 81 83 83 84 84 85 87
Wind_Direction
298 280 249 240 235 233 223 204 196 196 204 206 208 215 227 239 235 233 234 229 227 233 219 219 202 211 214 214 217 228 229 230 226 226 230 236 242 244 245 246 249 250 249
293 260 214 208 204 202 201 194 183 201 203 201 205 209 208 212 232 232 227 231 236 234 230 229 227 229 228 226 228 234 239 237 237 236 235 234 236 239 241 244 245 243 244
279 225 199 197 193 183 186 195 177 178 195 203 205 210 206 209 234 230 237 237 231 228 228 226 231 240 237 238 236 242 242 242 238 237 240 240 240 244 247 247 244 248 248
240 185 196 195 190 178 180 163 179 171 191 200 204 201 214 213 228 238 228 224 227 234 237 235 221 225 221 220 231 239 249 242 245 239 237 240 245 247 246 245 249 249 247
168 175 179 160 150 146 152 172 158 177 182 193 188 201 207 232 230 233 220 223 227 230 233 236 229 234 233 240 236 240 252 250 244 244 233 228 258 256 244 247 250 254 259
155 177 158 151 134 144 124 137 209 192 197 203 202 187 223 227 230 235 235 233 229 233 237 238 237 236 240 244 250 253 243 246 241 246 239 253 263 262 259 251 250 248 256
173 149 148 149 144 165 161 177 189 225 218 208 189 215 218 206 214 237 234 237 233 229 232 231 241 245 245 253 256 258 261 245 241 243 254 257 264 263 261 254 251 255 265
160 144 146 147 150 172 166 180 184 211 214 212 200 214 216 229 240 236 221 222 226 237 244 253 248 249 257 255 252 255 249 245 242 247 264 262 264 264 267 261 255 259 273
156 150 149 150 156 169 185 203 191 210 213 210 209 212 226 232 226 233 236 242 238 235 235 258 259 257 254 251 244 241 253 259 255 271 269 263 262 260 263 272 256 278 283
167 163 171 185 190 193 192 199 200 208 200 211 219 217 235 228 230 241 243 231 233 237 248 258 246 247 230 252 239 251 263 263 256 266 269 269 276 261 273 285 285 279 282
184 176 183 190 193 196 199 204 201 203 208 229 222 240 237 230 228 241 244 234 244 247 245 263 256 242 255 254 251 256 261 261 255 276 281 281 283 286 288 289 290 286 288
192 191 183 208 191 203 204 205 209 202 221 210 230 236 230 245 250 245 237 238 243 251 250 251 245 251 253 243 274 272 284 265 267 285 284 290 287 285 290 291 291 289 289
205 200 194 204 198 208 209 211 214 209 218 212 222 225 225 228 230 229 244 238 243 243 245 239 238 243 247 262 273 279 279 283 285 289 293 292 294 294 293 289 288 290 283
216 210 210 210 215 204 223 216 219 223 223 222 229 230 230 227 226 224 232 228 232 231 243 248 263 266 270 274 278 279 280 281 284 289 289 289 291 294 291 292 287 281 273
223 224 226 222 210 218 229 226 226 230 231 234 229 233 239 242 233 235 241 248 246 250 254 254 262 263 269 271 272 276 277 279 282 285 285 287 287 287 287 287 277 274 266
224 223 224 222 218 225 226 232 229 238 242 241 240 240 238 244 247 242 244 251 254 252 254 258 260 263 266 269 271 274 275 276 281 283 283 283 284 281 276 270 265 264 265
232 224 227 231 230 231 225 233 232 237 241 246 248 245 247 244 247 249 250 254 256 258 259 263 264 263 267 270 272 272 276 276 276 279 280 283 280 269 266 262 263 265 268
237 235 232 231 232 231 237 238 239 239 241 249 252 245 251 252 252 256 255 254 254 255 257 260 264 269 269 270 274 275 278 280 279 279 281 272 266 263 262 261 263 268 267
242 236 236 237 234 235 239 238 238 242 244 250 251 250 253 255 258 257 260 260 264 262 263 263 264 267 271 272 270 274 277 277 276 270 265 262 261 261 261 262 265 266 267
255 247 241 238 241 243 243 243 244 242 245 249 250 253 255 258 256 257 258 261 264 264 263 265 267 266 267 271 273 269 273 270 267 262 260 259 259 259 261 264 264 263 267
252 251 250 247 244 244 244 247 247 250 247 250 249 250 254 259 261 260 260 263 264 262 263 265 265 266 266 266 267 272 267 264 262 259 259 259 260 261 264 264 266 267 269
255 252 245 244 247 247 245 247 251 253 255 255 253 255 256 260 262 263 260 262 262 263 262 264 265 268 268 267 266 265 262 261 261 260 260 260 261 262 263 265 267 268 270
258 254 254 253 249 248 247 248 248 250 251 253 255 256 258 259 260 258 259 261 262 261 261 261 262 263 264 263 263 262 259 261 263 262 262 262 262 263 264 266 267 268 269
263 260 256 254 252 249 248 248 249 250 250 250 251 252 253 254 255 256 258 260 260 260 260 260 261 262 262 262 261 260 260 261 263 263 262 262 263 264 265 266 267 268 269
268 263 259 257 254 254 253 250 248 248 250 251 252 250 250 253 256 257 259 260 262 264 265 265 264 263 263 263 261 261 261 260 260 261 262 262 263 263 264 265 266 268 269
271 267 263 258 256 256 254 254 253 250 249 249 250 249 249 251 254 256 258 260 261 262 264 266 267 267 266 265 264 263 262 262 262 262 263 264 265 266 266 266 267 268 269
Height
10711 10710 10712 10716 10719 10723 10729 10734 10744 10756 10765 10774 10781 10788 10792 10795 10798 10800 10803 10806 10809 10812 10815 10817 10819 10821 10824 10826 10828 10829 10830 10833 10835 10837 10838 10839 10840 10841 10844 10846 10847 10850 10852
10703 10704 10706 10711 10715 10718 10722 10731 10740 10751 10759 10769 10776 10783 10788 10789 10794 10796 10799 10802 10805 10807 10810 10813 10815 10817 10820 10821 10823 10825 10827 10830 10832 10832 10833 10834 10835 10836 10838 10840 10842 10844 10846
10696 10699 10703 10707 10711 10716 10724 10732 10738 10748 10754 10763 10770 10776 10781 10786 10787 10791 10795 10798 10799 10802 10805 10808 10810 10813 10815 10817 10819 10821 10824 10825 10826 10826 10828 10830 10830 10832 10834 10836 10837 10839 10841
10687 10692 10698 10704 10712 10719 10725 10730 10737 10744 10751 10759 10766 10772 10776 10780 10783 10786 10790 10792 10794 10797 10800 10803 10805 10808 10810 10812 10815 10816 10819 10821 10821 10822 10823 10825 10827 10829 10830 10831 10832 10834 10836
10682 10689 10696 10704 10710 10717 10724 10725 10734 10744 10751 10757 10763 10769 10774 10777 10779 10782 10784 10787 10790 10793 10796 10798 10801 10803 10805 10807 10810 10811 10813 10815 10816 10817 10819 10821 10824 10824 10824 10825 10827 10829 10831
10685 10690 10696 10702 10706 10721 10726 10728 10739 10745 10751 10755 10760 10765 10770 10772 10773 10776 10780 10783 10786 10788 10791 10793 10795 10797 10800 10802 10804 10807 10809 10810 10812 10813 10815 10817 10818 10818 10820 10821 10822 10823 10825
10689 10691 10695 10702 10707 10717 10724 10736 10745 10744 10748 10751 10756 10762 10764 10768 10771 10773 10775 10779 10781 10783 10785 10787 10789 10792 10795 10797 10799 10801 10802 10805 10806 10808 10809 10811 10811 10812 10814 10816 10817 10819 10820
10691 10693 10697 10701 10708 10714 10722 10729 10735 10741 10743 10747 10751 10754 10759 10763 10766 10768 10769 10773 10775 10777 10780 10781 10784 10786 10788 10790 10793 10794 10796 10798 10799 10800 10801 10803 10805 10807 10808 10810 10811 10812 10814
10695 10696 10699 10705 10709 10715 10721 10724 10729 10733 10735 10740 10745 10750 10755 10756 10758 10761 10763 10766 10769 10771 10773 10775 10777 10780 10782 10784 10785 10788 10790 10791 10792 10793 10795 10796 10799 10800 10802 10804 10804 10805 10806
10696 10696 10700 10703 10705 10709 10715 10719 10722 10726 10731 10735 10740 10742 10745 10748 10751 10754 10757 10760 10763 10764 10766 10769 10770 10773 10774 10777 10779 10781 10783 10784 10785 10786 10788 10790 10792 10793 10794 10795 10795 10795 10796
10692 10694 10696 10698 10702 10706 10711 10714 10717 10720 10727 10730 10734 10736 10740 10742 10744 10749 10751 10753 10756 10759 10759 10762 10764 10766 10769 10770 10772 10774 10776 10776 10777 10779 10781 10781 10782 10783 10783 10784 10784 10785 10785
10690 10691 10694 10696 10697 10699 10704 10708 10713 10716 10719 10724 10730 10732 10736 10736 10738 10741 10744 10747 10749 10751 10753 10756 10758 10759 10761 10763 10763 10765 10765 10768 10769 10771 10771 10772 10773 10773 10773 10772 10772 10774 10774
10685 10687 10689 10693 10693 10695 10699 10702 10704 10709 10715 10719 10721 10726 10727 10732 10732 10734 10735 10739 10741 10744 10747 10748 10750 10752 10753 10755 10755 10756 10756 10758 10760 10760 10760 10761 10761 10760 10761 10761 10762 10762 10761
10679 10682 10683 10687 10689 10691 10695 10697 10700 10703 10707 10710 10714 10714 10718 10723 10723 10726 10727 10730 10733 10734 10737 10740 10740 10741 10743 10744 10745 10747 10747 10748 10748 10749 10750 10752 10752 10750 10751 10749 10748 10748 10749
10670 10672 10675 10679 10683 10684 10687 10690 10694 10697 10700 10702 10706 10708 10709 10712 10716 10717 10720 10722 10724 10726 10728 10729 10731 10733 10734 10735 10736 10737 10737 10738 10738 10738 10739 10740 10740 10740 10740 10738 10737 10736 10738
10662 10664 10666 10669 10673 10677 10678 10680 10684 10687 10690 10692 10694 10699 10701 10703 10705 10707 10710 10712 10715 10716 10718 10719 10720 10722 10723 10725 10725 10726 10726 10727 10727 10727 10728 10728 10728 10727 10727 10727 10726 10726 10727
10655 10657 10659 10662 10663 10666 10669 10671 10675 10678 10679 10682 10685 10687 10690 10693 10695 10696 10699 10701 10702 10704 10706 10707 10709 10710 10711 10712 10713 10715 10715 10716 10717 10715 10715 10713 10713 10713 10713 10714 10715 10716 10717
10646 10648 10650 10652 10654 10656 10659 10662 10664 10666 10669 10671 10673 10677 10679 10681 10683 10685 10686 10688 10690 10692 10694 10695 10696 10698 10699 10700 10701 10702 10702 10702 10701 10699 10700 10699 10700 10701 10702 10703 10704 10705 10706
10635 10637 10640 10643 10645 10647 10649 10652 10654 10655 10658 10660 10663 10665 10668 10670 10670 10672 10673 10675 10676 10678 10679 10682 10683 10684 10685 10687 10688 10688 10687 10686 10687 10685 10685 10686 10688 10689 10690 10690 10692 10693 10693
10625 10629 10630 10632 10635 10637 10639 10640 10642 10644 10646 10650 10652 10653 10654 10655 10657 10658 10661 10663 10664 10664 10665 10665 10667 10669 10670 10672 10672 10672 10672 10671 10670 10671 10672 10673 10674 10676 10677 10678 10679 10680 10679
10609 10613 10616 10620 10622 10623 10624 10627 10629 10632 10635 10637 10639 10640 10640 10641 10644 10647 10649 10648 10648 10648 10650 10650 10652 10653 10654 10657 10656 10656 10656 10656 10657 10657 10659 10659 10660 10663 10663 10663 10664 10664 10664
10593 10594 10596 10598 10602 10606 10609 10611 10613 10615 10618 10621 10621 10621 10624 10628 10631 10632 10632 10631 10631 10632 10633 10634 10635 10636 10638 10639 10639 10640 10642 10642 10643 10644 10645 10645 10646 10647 10647 10648 10649 10648 10648
10576 10579 10582 10584 10586 10588 10590 10594 10596 10598 10601 10600 10601 10605 10610 10612 10613 10613 10614 10615 10616 10616 10617 10618 10618 10619 10620 10621 10622 10624 10626 10627 10628 10628 10629 10629 10630 10630 10630 10631 10632 10632 10631
10558 10561 10563 10566 10567 10570 10572 10575 10577 10581 10583 10583 10585 10589 10591 10594 10595 10596 10597 10599 10600 10601 10601 10602 10602 10603 10603 10604 10606 10607 10609 10610 10611 10612 10612 10612 10612 10611 10612 10612 10613 10613 10611
10542 10543 10545 10547 10548 10551 10552 10555 10557 10561 10563 10565 10570 10572 10574 10577 10578 10579 10581 10582 10582 10583 10584 10585 10586 10586 10586 10587 10588 10589 10591 10593 10594 10595 10592 10593 10592 10591 10591 10591 10592 10592 10592
10524 10525 10526 10527 10529 10530 10531 10534 10537 10539 10540 10545 10549 10552 10555 10557 10559 10561 10562 10563 10564 10566 10567 10568 10568 10568 10568 10569 10570 10571 10572 10574 10575 10577 10574 10572 10570 10567 10568 10569 10569 10570 10570